EHI
3 3 4 4 4 2 1 2 3 3 3 3 3 3 2 1 0 0 0 0 0 0 0 0 0 0 0 0 0 0 0 0 0 0 0 0 0 0 0 0 0 0 0
5 5 5 5 5 4 4 3 3 3 4 3 3 2 2 1 0 0 0 0 0 0 0 0 0 0 0 0 0 0 0 0 0 0 0 0 0 0 0 0 0 0 0
7 7 6 7 7 6 7 6 5 5 4 3 3 3 2 1 0 0 0 0 0 0 0 0 0 0 0 0 0 0 0 0 0 0 0 0 0 0 0 0 0 0 0
7 7 7 9 9 8 8 8 7 5 4 2 3 4 3 2 1 0 0 0 0 0 0 0 0 0 0 0 0 0 0 0 0 0 0 0 0 0 0 0 0 0 0
5 5 7 9 10 8 8 8 7 5 3 2 2 3 3 3 1 0 0 0 0 0 0 0 0 0 0 0 0 0 0 0 0 0 0 0 0 0 0 0 0 0 0
3 4 7 10 11 9 9 10 9 7 5 3 1 2 3 3 2 0 0 0 0 0 0 0 0 0 0 0 0 0 0 0 0 0 0 0 0 0 0 0 0 0 0
4 6 9 12 13 13 13 13 12 10 7 4 2 2 3 3 1 0 0 0 0 0 0 0 0 0 0 0 0 0 0 0 0 0 0 0 0 0 0 0 0 0 0
5 7 9 11 14 16 16 15 14 11 8 5 4 4 4 3 1 0 0 0 0 0 0 0 0 0 0 0 0 0 0 0 0 1 0 0 0 0 0 0 0 0 0
6 6 7 9 11 14 16 16 14 11 9 8 8 7 6 4 2 0 0 0 0 0 0 0 0 0 0 0 0 0 0 0 0 0 0 0 0 0 0 0 0 0 0
7 5 5 5 7 12 16 16 13 11 11 11 11 10 9 7 4 2 2 1 1 0 0 0 0 0 0 0 0 0 0 0 0 0 0 0 0 0 0 0 0 0 0
7 5 3 4 6 11 15 16 13 12 13 14 14 13 10 7 6 5 5 4 2 1 0 0 0 0 0 0 0 0 0 0 0 0 0 0 0 0 0 0 0 0 0
6 4 5 7 9 12 14 14 14 14 16 17 17 14 11 8 8 8 8 6 3 1 0 0 0 0 0 0 0 0 0 0 0 0 0 0 0 0 0 0 0 0 0
4 5 7 10 13 14 14 14 14 15 17 20 19 16 12 10 10 10 9 7 4 1 0 0 0 0 0 0 0 0 0 1 1 0 0 1 1 0 0 0 0 0 0
4 4 7 11 14 16 17 18 17 15 15 19 19 16 13 11 10 10 9 7 4 2 1 1 1 0 0 0 0 0 1 2 2 1 1 1 1 0 0 0 0 0 0
4 5 7 9 11 14 17 20 22 19 16 15 14 12 10 9 9 10 9 5 3 3 3 2 2 1 0 0 0 1 2 3 3 2 2 1 0 0 0 0 0 0 1
8 7 7 7 8 10 15 20 23 23 20 15 11 9 9 9 10 10 8 5 3 3 3 3 3 2 1 0 0 1 2 4 4 3 2 0 0 0 0 0 0 0 1
11 9 7 6 6 8 13 18 21 23 23 19 14 12 11 11 11 10 8 5 3 2 3 3 3 3 2 1 0 0 1 3 4 4 3 1 0 0 0 0 0 0 1
10 8 6 5 6 8 12 16 18 20 21 19 14 13 12 11 12 11 9 6 4 3 4 4 3 3 3 2 1 0 1 3 3 3 2 1 1 1 0 0 0 0 1
8 6 5 5 7 10 13 16 17 18 19 18 14 13 12 11 11 11 8 7 6 5 5 5 5 4 3 3 1 1 2 3 2 1 1 1 0 0 0 0 0 1 2
5 5 5 7 9 11 14 15 15 16 18 19 17 16 14 13 12 11 8 6 5 5 5 6 6 5 3 3 2 2 3 3 2 1 0 0 0 0 0 0 1 1 2
3 5 8 9 9 10 13 14 13 14 17 20 20 19 16 14 13 12 9 6 4 3 3 4 5 5 4 2 1 1 2 2 2 2 1 0 0 0 0 0 1 2 2
4 7 11 11 11 12 13 13 13 13 16 20 21 19 16 15 13 11 9 6 4 3 2 2 3 4 3 1 0 0 1 1 1 1 1 0 0 0 0 0 1 1 1
6 8 10 11 13 13 13 13 13 14 15 18 19 18 17 17 14 11 11 9 6 4 3 2 2 3 2 1 1 0 0 0 0 0 0 0 0 0 0 0 0 0 0
7 8 9 10 11 10 10 11 11 13 15 17 19 18 17 17 16 14 13 12 8 6 5 5 4 4 3 2 1 1 1 1 1 0 1 1 0 0 0 0 0 0 0
9 9 8 8 8 7 7 8 9 11 15 19 20 17 15 15 16 16 14 11 8 6 6 6 6 5 3 1 1 1 1 2 1 1 1 1 0 0 0 0 0 0 0
11 10 8 7 7 6 6 6 7 11 16 21 20 15 13 14 16 15 11 7 6 4 4 5 5 4 2 0 0 0 1 1 1 1 1 1 0 0 0 0 0 0 0
Wind_Speed
7 6 7 7 6 6 6 6 5 5 4 3 2 2 1 1 1 1 1 2 2 3 2 2 2 2 2 2 2 2 2 1 1 2 2 2 2 1 1 0 0 0 1
6 6 6 7 7 7 7 6 6 5 5 4 3 2 2 1 1 1 1 2 2 2 2 3 2 2 2 2 2 2 1 1 1 2 2 1 2 2 1 1 0 1 0
10 9 9 8 8 8 8 8 7 6 5 5 3 3 2 2 1 1 1 1 2 2 2 3 3 2 2 1 1 2 2 2 1 1 2 2 1 1 2 1 1 1 1
10 9 10 9 10 10 8 7 7 6 5 6 6 6 4 3 3 2 1 1 2 2 2 3 3 2 2 2 1 2 2 2 1 0 1 1 2 2 1 2 1 1 1
10 11 11 11 10 9 8 7 7 6 6 6 7 6 4 3 2 2 2 1 1 1 2 2 2 2 2 2 1 1 2 1 2 1 1 1 1 1 1 1 2 2 2
10 10 9 8 7 7 7 7 7 7 6 7 6 6 6 5 4 3 3 2 1 1 2 2 2 2 2 2 2 2 2 2 2 1 1 1 1 1 1 1 1 2 2
9 9 10 10 9 9 9 8 8 7 6 7 7 7 7 6 6 5 4 3 2 1 2 2 2 2 2 2 2 2 2 2 2 2 1 1 1 1 2 1 1 1 2
8 10 10 11 11 11 10 9 9 7 7 7 7 6 6 5 4 5 4 4 3 3 3 3 3 2 2 2 2 1 1 2 2 2 2 1 1 1 1 2 2 0 1
8 9 10 10 10 11 11 11 10 8 8 8 6 6 6 6 5 4 4 3 3 3 3 4 3 3 3 3 3 2 1 2 2 2 1 1 1 1 1 2 2 2 2
7 8 8 9 10 10 10 10 10 9 8 8 7 6 6 6 5 5 4 4 3 3 3 3 3 3 3 3 3 2 1 2 1 1 1 1 1 1 1 1 1 2 2
6 7 7 7 7 7 7 8 8 8 7 7 6 6 6 6 5 5 5 5 4 4 4 4 4 3 3 3 3 3 3 2 1 1 1 1 1 1 1 1 1 1 2
5 6 6 5 6 7 8 8 8 8 8 7 6 6 5 6 6 6 5 5 5 5 5 4 4 4 3 3 3 3 3 3 3 2 2 2 1 1 1 1 2 2 2
4 4 5 6 6 7 7 8 8 8 8 8 7 6 6 6 7 7 6 5 5 5 5 5 5 4 4 4 4 4 3 3 3 3 3 3 2 2 2 2 2 2 2
3 4 5 5 5 6 6 6 7 7 7 8 8 8 8 7 7 6 6 5 5 6 6 6 5 5 4 4 4 4 4 3 3 3 3 3 4 4 3 3 3 2 2
3 4 5 5 5 5 6 6 7 7 7 8 8 8 7 6 5 6 6 5 6 6 6 5 5 4 4 4 5 5 5 4 4 3 3 4 4 5 4 3 3 3 2
5 4 4 4 5 6 7 7 7 7 7 8 7 7 6 6 6 6 5 5 5 5 5 5 5 4 4 5 6 6 4 4 4 3 3 3 3 3 4 5 5 5 4
4 4 5 5 5 6 7 7 7 6 7 7 6 6 6 6 6 6 6 6 6 5 4 4 4 5 4 5 6 7 4 4 4 4 3 3 2 2 2 3 4 5 6
4 4 3 3 4 4 4 4 5 5 5 5 5 5 6 6 5 5 6 5 5 5 5 5 5 4 4 5 6 6 4 3 4 4 3 3 2 2 2 2 2 3 4
4 4 4 4 4 4 5 6 6 6 5 5 5 6 6 6 6 6 6 4 4 4 4 5 5 5 4 5 6 6 3 3 3 3 3 3 3 3 2 2 2 3 3
2 2 2 3 4 3 5 6 6 6 6 6 6 6 6 6 7 6 5 4 4 4 5 5 5 5 5 6 6 6 3 3 2 2 2 3 3 4 4 3 3 3 3
2 3 3 3 3 4 5 5 5 6 6 5 5 5 5 5 5 4 4 4 4 4 4 3 3 4 5 5 6 6 4 4 3 3 3 3 5 5 5 5 4 5 3
2 3 3 2 2 4 5 4 5 5 4 4 4 4 4 4 4 4 4 4 4 4 3 3 2 2 3 4 5 6 6 5 4 4 3 4 5 5 5 4 4 4 3
2 2 3 2 1 2 4 5 4 2 3 4 5 4 4 4 4 5 5 4 4 4 3 3 3 2 2 3 4 5 6 6 4 3 4 4 4 4 3 3 3 3 2
1 2 2 2 1 1 2 3 2 3 4 4 4 4 4 4 3 3 4 4 4 4 4 4 3 3 2 2 2 2 3 4 3 2 2 2 2 2 2 1 2 2 2
1 2 2 3 3 2 1 1 1 3 4 4 4 4 4 4 4 4 4 5 5 6 6 5 4 4 4 5 5 4 3 3 3 2 1 1 1 1 1 1 1 1 2
2 2 2 3 3 2 2 1 1 2 3 3 4 4 4 4 4 3 2 3 3 4 6 5 5 4 5 4 5 5 4 4 4 3 1 2 2 2 2 2 2 2 2
Wind_Direction
208 190 184 176 169 171 174 176 174 168 151 141 147 145 158 143 110 131 137 140 135 127 124 125 112 111 116 116 112 109 96 74 79 84 52 27 33 57 42 27 83 289 250
189 185 179 175 176 178 179 177 182 175 171 168 160 151 140 145 148 127 107 130 137 138 143 135 128 123 114 96 93 104 113 93 85 111 103 29 357 3 13 18 145 262 261
193 187 186 187 179 184 185 185 184 178 175 161 134 115 90 78 86 108 127 142 147 150 146 145 142 134 133 143 153 147 141 142 96 102 138 146 209 313 337 345 352 311 280
192 186 187 191 191 193 187 181 179 176 174 162 159 159 162 170 186 176 166 143 139 147 146 143 142 139 141 152 176 148 152 146 158 104 75 136 149 146 323 325 323 310 285
193 188 192 193 193 189 185 180 177 179 176 173 173 169 167 167 151 144 142 141 133 140 143 146 148 148 146 152 135 117 132 140 156 154 138 106 80 107 146 279 316 325 302
190 188 187 182 184 182 183 179 179 185 181 178 179 178 173 165 157 160 168 172 159 147 153 152 156 156 154 163 161 146 137 138 141 142 142 149 149 166 165 211 264 292 302
186 183 181 182 184 184 187 183 183 188 186 182 187 189 182 175 177 177 182 178 175 186 194 172 167 165 179 173 157 147 154 159 153 165 168 167 179 167 163 162 224 276 299
184 186 188 189 190 189 188 185 186 188 186 188 193 189 182 179 184 181 178 184 190 194 185 174 173 173 168 164 154 154 178 157 166 172 163 158 179 172 174 170 169 248 297
190 189 185 187 189 189 191 189 188 189 190 189 183 183 183 181 183 180 178 180 184 181 171 169 168 167 162 161 153 156 166 148 163 176 174 183 207 198 200 186 177 176 234
189 187 186 189 189 189 188 187 190 194 191 185 186 189 182 180 177 171 178 181 180 166 160 168 170 166 165 164 156 156 155 142 171 181 163 189 215 204 201 200 198 193 197
191 189 190 191 183 177 182 186 188 187 182 181 181 182 180 179 174 178 188 186 179 170 172 177 175 175 177 173 165 171 161 166 192 198 183 215 202 197 218 205 195 200 197
187 188 184 174 175 179 182 185 186 184 183 179 178 186 181 178 183 190 194 187 184 181 179 176 175 185 186 182 178 185 180 182 194 208 198 224 208 208 222 210 217 218 212
178 178 174 174 178 182 182 180 182 184 178 172 175 182 187 188 194 197 194 188 183 180 177 175 181 188 190 188 193 190 190 196 204 206 206 221 207 227 224 219 227 233 229
184 180 181 183 179 177 178 179 184 178 171 171 177 186 195 199 200 196 192 188 184 184 185 187 190 191 192 195 197 194 195 205 216 216 215 220 216 225 225 225 228 221 218
193 195 192 188 179 181 181 178 178 175 174 171 182 194 196 197 192 190 189 186 188 193 190 186 193 195 195 206 203 199 200 207 221 230 229 227 222 224 224 228 221 211 211
203 201 191 184 185 189 185 179 179 175 168 171 185 190 181 180 186 188 183 182 185 183 179 184 188 194 209 211 204 198 202 205 214 229 239 236 231 240 246 247 233 216 212
205 202 197 190 190 192 185 181 178 168 168 177 184 184 176 182 188 186 179 186 188 181 183 189 192 202 215 210 206 198 191 204 217 223 232 243 238 226 247 263 257 240 237
198 200 194 193 190 182 176 164 158 167 174 178 181 181 180 185 183 181 187 190 182 180 186 192 200 204 218 208 202 196 196 206 220 223 222 225 243 240 237 251 266 266 258
200 198 197 183 163 162 165 155 163 169 173 186 191 191 185 182 180 185 190 188 179 182 188 189 195 202 219 211 203 192 194 207 226 231 225 217 230 248 219 215 256 277 283
177 176 176 144 139 155 154 156 168 173 190 198 198 193 183 180 186 188 182 177 178 190 191 199 201 203 212 212 204 192 195 207 225 232 231 226 237 244 218 210 224 251 268
157 149 144 135 153 150 145 152 166 196 204 193 183 180 179 183 178 173 171 171 175 177 186 197 209 209 212 211 208 197 194 203 213 223 236 241 240 236 231 223 227 241 250
129 137 137 141 139 145 151 163 196 209 185 171 172 175 176 181 169 165 171 173 171 171 181 188 210 221 217 213 214 204 203 203 208 221 231 234 228 224 226 225 240 242 231
155 142 140 134 124 152 158 177 209 189 168 167 172 175 171 175 166 167 171 169 169 177 190 197 213 223 219 222 222 215 211 212 219 232 233 231 221 215 219 225 226 217 208
161 132 121 130 169 205 171 186 186 171 172 175 178 177 173 171 164 167 172 177 183 189 193 201 213 223 226 223 221 222 216 219 226 240 238 222 217 211 212 216 230 222 213
207 148 160 185 202 200 186 197 185 168 177 179 179 179 178 173 178 184 185 189 199 195 194 200 200 203 224 227 206 198 209 209 204 180 166 186 197 205 221 234 245 232 215
188 179 189 198 207 190 188 205 203 187 173 176 183 187 184 182 183 186 192 200 200 206 202 198 192 210 221 210 199 202 206 195 165 151 187 208 214 226 237 241 244 232 227